Location: San Antonio
(29.4240°N, 98.4930°W)
Time: 08:27:10
(UTC-05:00)

ACS3 Solar Sail - Pass Details

Date: 23 June 2024
Orbit: 992 x 1023 km, 97.4° (Epoch: 11 July)

Event Time Altitude Azimuth Distance (km) Brightness Sun altitude
Exits shadow 22:06:28 19° 96° (E) 2,183 6.2 -16.9°
Maximum altitude 22:08:34 22° 69° (ENE) 2,005 6.2 -17.3°
Drops below altitude 10° 22:13:11 10° 21° (NNE) 2,761 7.4 -18.0°
Sets 22:16:12 0° 7° (N) 3,711 8.3 -18.5°
